This is the latest recevied weather packets stored in our database for station/object NW0017. If no packets are shown the sender has not sent any weather packets the latest 1 day(s).
| Time | Temp. | Humidity | Pressure | Rain* | Wind** | Luminosity | Snow |
|---|---|---|---|---|---|---|---|
| 1836274126 | 31.67° C | 73% | 1005.2 hPa | 0 mm | 0 m/s | 827 W/m² | - |
| 1836274078 | 31.67° C | 73% | 1005.1 hPa | 0 mm | 0 m/s | 826 W/m² | - |
| 1836274030 | 31.67° C | 73% | 1005.2 hPa | 0 mm | 0 m/s | 829 W/m² | - |
| 1836273982 | 31.67° C | 72% | 1005.2 hPa | 0 mm | 0 m/s | 835 W/m² | - |
| 1836273935 | 31.67° C | 72% | 1005.2 hPa | 0 mm | 0 m/s | 833 W/m² | - |
| 1836273887 | 31.67° C | 71% | 1005.2 hPa | 0 mm | 0 m/s | 828 W/m² | - |
| 1778067176 | 29.44° C | 88% | 1004.9 hPa | 0 mm | 2.68 m/s, 75° | 0 W/m² | - |
| 1778067116 | 29.44° C | 88% | 1004.9 hPa | 0 mm | 2.24 m/s, 79° | 0 W/m² | - |
| 1778067056 | 29.44° C | 88% | 1004.9 hPa | 0 mm | 2.24 m/s, 79° | 0 W/m² | - |
| 1778066997 | 29.44° C | 88% | 1004.9 hPa | 0 mm | 3.13 m/s, 61° | 0 W/m² | - |
| 1778066936 | 29.44° C | 88% | 1004.9 hPa | 0 mm | 2.24 m/s, 73° | 0 W/m² | - |
| 1778066876 | 29.44° C | 88% | 1004.9 hPa | 0 mm | 2.24 m/s, 61° | 0 W/m² | - |
| 1778066816 | 30° C | 88% | 1004.9 hPa | 0 mm | 2.68 m/s, 98° | 0 W/m² | - |
| 1778066756 | 30° C | 88% | 1004.9 hPa | 0 mm | 2.68 m/s, 83° | 0 W/m² | - |
| 1778066696 | 30° C | 88% | 1004.9 hPa | 0 mm | 3.13 m/s, 76° | 0 W/m² | - |
| 1778066636 | 30° C | 88% | 1004.9 hPa | 0 mm | 2.24 m/s, 78° | 0 W/m² | - |
| 1778066576 | 30° C | 88% | 1004.9 hPa | 0 mm | 2.68 m/s, 72° | 1 W/m² | - |
| 1778066516 | 30° C | 88% | 1004.9 hPa | 0 mm | 2.68 m/s, 64° | 1 W/m² | - |
| 1778066456 | 30° C | 88% | 1004.9 hPa | 0 mm | 2.24 m/s, 71° | 2 W/m² | - |
| 1778066396 | 30° C | 88% | 1004.9 hPa | 0 mm | 2.24 m/s, 80° | 3 W/m² | - |
| 1778066336 | 30° C | 88% | 1004.8 hPa | 0 mm | 1.79 m/s, 78° | 4 W/m² | - |
| 1778066276 | 30° C | 88% | 1004.8 hPa | 0 mm | 1.79 m/s, 75° | 5 W/m² | - |
| 1778066216 | 30° C | 88% | 1004.8 hPa | 0 mm | 1.79 m/s, 62° | 6 W/m² | - |
| 1778066159 | 30° C | 88% | 1004.8 hPa | 0 mm | 2.68 m/s, 81° | 7 W/m² | - |
| 1778066096 | 30° C | 88% | 1004.8 hPa | 0 mm | 2.68 m/s, 58° | 8 W/m² | - |
* Rain latest hour (hover to see other rain measurements)
** Current wind speed in m/s (hover to see current wind gust speed)